Date String (YYYY-MM-DD hh:mm:ss) UTC,Instrument flags,Ambient pressure (hPa),Sample flow (lpm),Bypass flow (lpm),Sample temperature (°C),Ambient temperature (°C),ASC tube jacket temperature (°C),LED temperature (°C),Box temperature (°C),Sample RH (%),Span deviation,Mass concentration (μg/m³),Mass concentration (μg/m³),Mass concentration (μg/m³)
DateTimeUTC,F1_M11,P_M11,Q1_M11,Q2_M11,T1_M11,T2_M11,T3_M11,T4_M11,T5_M11,U1_M11,ZSPAN_M11,X2_M11,X0_M11,X1_M11
2023-04-25 00:00:00,,0822.6,5.00,0.00,28.4,27.1,00.0,36.7,29.9,10.0,0000.0,0005.93,0012.46,0005.00
2023-04-25 00:01:00,,0822.7,5.00,0.00,28.4,27.1,00.0,36.7,29.9,10.0,0000.0,0005.94,0012.40,0005.03
2023-04-25 00:02:00,,0822.9,5.00,0.00,28.4,27.1,00.0,36.7,30.0,10.0,0000.0,0005.95,0012.67,0005.04
2023-04-25 00:03:00,,0822.8,5.01,0.00,28.4,27.1,00.0,36.7,30.0,10.0,0000.0,0005.94,0012.95,0005.03
2023-04-25 00:04:00,,0822.9,5.00,0.00,28.4,27.1,00.0,36.7,30.0,09.8,0000.7,0005.92,0012.39,0005.04
2023-04-25 00:05:00,,0822.7,4.99,0.00,28.4,27.1,00.0,36.7,30.0,09.7,0005.7,0005.90,0012.54,0005.04
2023-04-25 00:06:00,,0822.7,5.01,0.00,28.4,27.1,00.0,36.7,30.0,09.8,0005.3,0005.89,0012.57,0005.04
2023-04-25 00:07:00,,0822.7,5.00,0.00,28.4,27.1,00.0,36.8,30.0,09.8,0004.1,0005.84,0012.48,0005.03
2023-04-25 00:08:00,,0822.8,4.99,0.00,28.4,27.1,00.0,36.8,30.0,09.9,0004.0,0005.86,0012.52,0005.04
2023-04-25 00:09:00,,0822.8,4.99,0.00,28.5,27.2,00.0,36.8,30.0,10.0,0003.9,0005.88,0011.98,0005.03
2023-04-25 00:10:00,,0822.8,5.01,0.00,28.5,27.2,00.0,36.8,30.0,10.3,0003.5,0005.90,0012.09,0005.01
2023-04-25 00:11:00,,0822.8,5.00,0.00,28.5,27.2,00.0,36.8,30.0,10.0,0003.2,0005.88,0012.52,0005.00
2023-04-25 00:12:00,,0822.8,5.00,0.00,28.5,27.2,00.0,36.8,30.0,10.1,0002.2,0005.86,0013.18,0004.98
2023-04-25 00:13:00,,0822.8,5.00,0.00,28.5,27.2,00.0,36.8,30.0,09.9,0001.3,0005.84,0012.86,0004.97
2023-04-25 00:14:00,,0822.9,5.00,0.00,28.5,27.2,00.0,36.8,30.0,09.8,0002.5,0005.86,0012.75,0004.99
2023-04-25 00:15:00,,0823.3,4.99,0.00,28.5,27.2,00.0,36.8,30.0,09.8,0004.4,0005.89,0013.19,0004.99
2023-04-25 00:16:00,,0823.1,4.99,0.00,28.5,27.1,00.0,36.8,30.0,09.7,0004.9,0005.87,0012.69,0004.99
2023-04-25 00:17:00,,0823.0,5.00,0.00,28.5,27.1,00.0,36.8,30.0,09.8,0000.0,0005.84,0012.49,0004.98
2023-04-25 00:18:00,,0822.8,5.00,0.00,28.5,27.1,00.0,36.8,30.0,09.7,0000.0,0005.87,0012.40,0004.98
2023-04-25 00:19:00,,0823.3,5.01,0.00,28.5,27.2,00.0,36.9,30.0,09.6,0000.0,0005.89,0012.26,0004.99
2023-04-25 00:20:00,,0823.2,5.00,0.00,28.5,27.2,00.0,36.9,30.1,09.8,0000.0,0005.87,0011.92,0005.01
2023-04-25 00:21:00,,0823.0,5.00,0.00,28.5,27.2,00.0,36.9,30.1,09.9,0000.0,0005.85,0012.14,0005.03
2023-04-25 00:22:00,,0822.8,4.99,0.00,28.6,27.2,00.0,36.9,30.1,09.9,0000.0,0005.84,0012.43,0005.03
2023-04-25 00:23:00,,0822.8,5.00,0.00,28.6,27.2,00.0,36.9,30.1,10.1,0001.6,0005.85,0011.85,0005.03
2023-04-25 00:24:00,,0822.7,4.99,0.00,28.6,27.2,00.0,36.9,30.1,10.2,0006.3,0005.84,0011.99,0005.03
2023-04-25 00:25:00,,0822.8,4.99,0.00,28.6,27.3,00.0,36.9,30.2,10.0,0001.2,0005.82,0012.18,0005.01
2023-04-25 00:26:00,,0822.8,5.01,0.00,28.6,27.3,00.0,36.9,30.2,10.4,0000.0,0005.82,0012.49,0004.99
2023-04-25 00:27:00,,0822.8,5.01,0.00,28.6,27.2,00.0,36.9,30.1,10.1,0000.0,0005.83,0012.59,0004.98
2023-04-25 00:28:00,,0822.8,4.99,0.00,28.6,27.2,00.0,36.9,30.1,09.9,-000.1,0005.85,0013.15,0004.97
2023-04-25 00:29:00,,0822.8,4.99,0.00,28.6,27.2,00.0,36.9,30.1,10.1,-001.0,0005.80,0012.92,0004.95
2023-04-25 00:30:00,,0822.7,5.01,0.00,28.6,27.2,00.0,36.9,30.1,10.1,-002.0,0005.75,0012.80,0004.92
2023-04-25 00:31:00,,0822.8,5.00,0.00,28.6,27.2,00.0,36.9,30.1,10.0,0004.0,0005.72,0013.18,0004.90
2023-04-25 00:32:00,,0822.8,5.00,0.00,28.6,27.2,00.0,36.9,30.1,09.9,-000.5,0005.73,0013.58,0004.87
2023-04-25 00:33:00,,0822.7,4.99,0.00,28.6,27.1,00.0,36.9,30.1,10.0,-000.3,0005.74,0012.78,0004.83
2023-04-25 00:34:00,,0822.8,5.00,0.00,28.6,27.1,00.0,36.9,30.1,09.9,0000.0,0005.75,0012.70,0004.81
2023-04-25 00:35:00,,0822.7,5.00,0.00,28.6,27.1,00.0,36.9,30.1,10.2,0000.0,0005.76,0013.14,0004.80
2023-04-25 00:36:00,,0822.7,5.01,0.00,28.6,27.2,00.0,36.9,30.1,10.2,0000.0,0005.75,0013.09,0004.81
2023-04-25 00:37:00,,0822.7,5.00,0.00,28.6,27.2,00.0,36.9,30.1,10.1,0000.0,0005.73,0012.98,0004.81
2023-04-25 00:38:00,,0822.7,4.99,0.00,28.6,27.2,00.0,36.9,30.1,10.1,0000.0,0005.71,0012.72,0004.81
2023-04-25 00:39:00,,0822.7,4.99,0.00,28.6,27.3,00.0,37.0,30.2,10.2,0000.0,0005.65,0012.17,0004.79
2023-04-25 00:40:00,,0822.7,5.01,0.00,28.6,27.3,00.0,37.0,30.2,10.6,0000.0,0005.61,0012.02,0004.76
2023-04-25 00:41:00,,0822.9,5.01,0.00,28.6,27.3,00.0,37.0,30.2,10.1,0000.0,0005.56,0011.94,0004.72
2023-04-25 00:42:00,,0822.8,5.01,0.00,28.6,27.3,00.0,37.0,30.2,09.9,0000.0,0005.51,0011.42,0004.70
2023-04-25 00:43:00,,0822.7,4.98,0.00,28.7,27.3,00.0,37.0,30.2,09.8,0000.0,0005.44,0011.02,0004.70
2023-04-25 00:44:00,,0822.8,5.01,0.00,28.7,27.3,00.0,37.0,30.2,09.9,0000.0,0005.41,0012.06,0004.69
2023-04-25 00:45:00,,0822.7,5.01,0.00,28.7,27.3,00.0,37.0,30.2,10.1,0000.0,0005.38,0011.98,0004.66
2023-04-25 00:46:00,,0822.8,4.99,0.00,28.7,27.3,00.0,37.0,30.2,10.1,0000.0,0005.36,0011.64,0004.61
2023-04-25 00:47:00,,0822.8,4.99,0.00,28.7,27.3,00.0,37.0,30.2,10.1,0000.0,0005.32,0011.56,0004.56
2023-04-25 00:48:00,,0822.6,5.00,0.00,28.7,27.3,00.0,37.0,30.2,10.0,0000.0,0005.26,0010.80,0004.51
2023-04-25 00:49:00,,0822.7,5.01,0.00,28.7,27.3,00.0,37.0,30.2,10.1,0000.0,0005.22,0010.68,0004.47
2023-04-25 00:50:00,,0822.7,5.00,0.00,28.7,27.3,00.0,37.0,30.1,10.1,0000.0,0005.21,0010.68,0004.45
2023-04-25 00:51:00,,0822.7,4.99,0.00,28.7,27.2,00.0,37.0,30.2,10.1,0000.0,0005.22,0010.57,0004.45
2023-04-25 00:52:00,,0822.7,5.01,0.00,28.6,27.2,00.0,37.0,30.1,10.3,0000.0,0005.25,0010.80,0004.45
2023-04-25 00:53:00,,0822.7,5.00,0.00,28.6,27.1,00.0,37.0,30.1,10.3,0000.0,0005.30,0011.45,0004.44
2023-04-25 00:54:00,,0822.8,5.00,0.00,28.6,27.1,00.0,37.0,30.1,10.5,0000.0,0005.29,0011.42,0004.42
2023-04-25 00:55:00,,0822.7,5.01,0.00,28.6,27.1,00.0,37.0,30.1,11.1,0000.0,0005.25,0010.50,0004.40
2023-04-25 00:56:00,,0822.7,5.00,0.00,28.6,27.0,00.0,37.0,30.0,11.9,0000.0,0005.19,0010.56,0004.37
2023-04-25 00:57:00,,0822.6,5.00,0.00,28.5,26.8,00.0,37.0,30.0,12.3,0000.0,0005.16,0010.70,0004.34
2023-04-25 00:58:00,,0822.7,4.99,0.00,28.5,26.8,00.0,37.0,29.9,12.4,0000.0,0005.17,0010.90,0004.32
2023-04-25 00:59:00,,0822.9,5.00,0.00,28.5,26.7,00.0,37.0,29.9,12.4,0000.0,0005.17,0011.78,0004.29
